TRANSIT 18 DEB, 35416

Orbit data source: Space-Track

TRANSIT 18 DEB, 35416 is space debris in LEO originally from a launch on Sat, 02 Mar 1968 UTC launched from the Air Force Western Test Range (AFWTR). Debris objects in space refer to the collection of defunct objects orbiting the Earth. Examples of debris include non-operational satellites, rocket bodies, and fragments generated from explosions, collisions, or faulty payload assembly.

Loading next visibility...
Identifier
35416, 1968-012F
Orbit
LEO
Last TLE update
12 hours ago
Origin
Manufacturer
Unknown
Mission
Spacecraft
Bus & Motor
Unknown
Mass
Unknown
Launch date (UTC)
1968-03-02 (57 years ago)
Launch vehicle
Unknown
Launch site
Air Force Western Test Range (AFWTR)
Object type
Payload
Rocket body
Debris
Shape & HBR
Unknown
Radar Cross Section
Medium (>0.1 m² and <1 m²)

Expand to show TLE details & history

TLE from 12 hours ago
0 TRANSIT 18 DEB
1 35416U 68012F   25128.92007512  .00000939  00000-0  12644-2 0  9990
2 35416  90.0186 272.5577 0065413 355.9641 128.9176 13.58262673799352
Epoch: 2025-05-08T22:04Z
Definitive object data (Epoch: 2025-05-08T22:04:54.49Z)
Latitude
54.63199°
Longitude
-105.62693°
Altitude
1,081.8 km
Speed
7.301 km/s
True Right ascension
06h 10m 20s
True Declination
54° 28' 36"
Sunlit
Object was in daylight at TLE epoch
Visualization TLE readout
Latitude
-48.27082°
Longitude
74.36867°
Altitude
1,024.884 km
Speed
7.356 km/s
Apparent Right ascension
23h 42m 02s
Apparent Declination
-86° 52' 42"
Sunlit
Object is in full shadow
Visualization observer readout
Local Sidereal Time
17:46:01
Azimuth
175.937° S
Elevation
-39.791°
Doppler factor
1
Orbital elements
Apogee altitude
1,087.568 km
Perigee altitude
990.532 km
Semi-major axis
7,417.187 km
Eccentricity
0.0065413
Inclination
90.0186°
RAAN
272.5577°
Arg. of periapsis
355.9641°
True anomaly
129.49782°
Mean anomaly
128.9176°
Eccentric anomaly
129.20801°
Mean motion
3.39769 °/min
BSTAR
0.0012644
Orbital period
105.95 mins
Loading maneuver chart data...
Loading SW <> Apogee altitude chart data...
Loading historical data...
Loading historical data...
Loading historical data...
Loading historical data...
Loading historical data...
Loading historical data...
Loading historical data...

TRANSIT 18 DEB Visibility forecast

Observer location: undefined°, undefined°

Span
Click to sort rows by Start time (UTC) header in descending order
Start Az.
Max El. time (UTC)
Max El. Az.
Max El.
End time (UTC)
End Az.
11 mins2025-05-09 09:56:40.603Z177.078° S2025-05-09 10:02:40.603Z344.866° N44.552°2025-05-09 10:07:40.603Z357.1° N
10 mins2025-05-09 21:03:40.603Z25.85° NE2025-05-09 21:08:40.603Z92.912° ESE31.326°2025-05-09 21:13:40.603Z148.44° SSE
10 mins2025-05-09 22:49:40.603Z336.369° NNW2025-05-09 22:53:40.603Z287.782° WNW29.712°2025-05-09 22:59:40.603Z220.707° SW
9 mins2025-05-10 08:57:40.603Z131.058° SE2025-05-10 09:01:40.603Z79.149° E28.685°2025-05-10 09:06:40.603Z19.625° NNE
|